[Iaude] MPEC D05: 2024 CZ6 [a=1.37,e=0.31,i=0.9,H=25.2]

mpec at cfa.harvard.edu mpec at cfa.harvard.edu
Fri Feb 16 06:37:58 EST 2024


M.P.E.C. 2024-D05                             Issued 2024 February 16, 11:36 UT

     The Minor Planet Electronic Circulars contain information on unusual
         minor planets, routine data on comets and natural satellites,
         and occasional editorial announcements.  They are published
    on behalf of Division F of the International Astronomical Union by the
          Minor Planet Center, Smithsonian Astrophysical Observatory,
                          Cambridge, MA 02138, U.S.A.
			  
             Prepared using the Tamkin Foundation Computer Network

                              MPC at CFA.HARVARD.EDU
            URL https://www.minorplanetcenter.net/    ISSN 1523-6714

                                    2024 CZ6                                    


Observations:
     K24C06Z* C2024 02 14.61590913 19 31.363+04 51 32.45         21.65wXED005F52
     K24C06Z  C2024 02 14.62577213 19 28.372+04 51 35.55         21.06wXED005F52
     K24C06Z  C2024 02 14.63554213 19 25.406+04 51 38.22         21.47wXED005F52
     K24C06Z KC2024 02 15.08726013 17 35.05 +04 53 11.4          21.2 GVED005L01
     K24C06Z KC2024 02 15.08979313 17 34.30 +04 53 12.6          21.5 GVED005L01
     K24C06Z KC2024 02 15.09326713 17 33.28 +04 53 12.8          21.6 GVED005L01
     K24C06Z KC2024 02 15.35030013 16 33.460+04 54 51.08         21.58GVED005I52
     K24C06Z KC2024 02 15.35355913 16 32.549+04 54 52.06         20.77GVED005I52
     K24C06Z KC2024 02 15.35681913 16 31.631+04 54 53.50         21.04GVED005I52
     K24C06Z KC2024 02 15.36007213 16 30.724+04 54 54.40         20.97GVED005I52
     K24C06Z  C2024 02 15.51962913 15 50.754+04 56 06.08         21.00GVED005F51
     K24C06Z  C2024 02 15.52044513 15 50.519+04 56 06.43         21.20GVED005F51
     K24C06Z  C2024 02 15.52126513 15 50.275+04 56 06.83         20.99GVED005F51
     K24C06Z  C2024 02 16.43482013 12 10.247+05 00 11.41         21.2 GVED005H01
     K24C06Z  C2024 02 16.43836413 12 09.285+05 00 12.51         21.1 GVED005H01
     K24C06Z  C2024 02 16.45078013 12 05.886+05 00 16.04         21.4 GVED005H01
     K24C06Z  C2024 02 16.45608613 12 04.429+05 00 17.58         21.1 GVED005H01

Observer details:
F51 Pan-STARRS 1, Haleakala.  Observers J. Herman, T. Lowe, P. Minguez, A.
    Schultz, I. Smith.  Measurers K. Chambers, T. de Boer, J. Fairlamb, H.
    Gao, M. Huber, C.-C. Lin, E. Magnier, Y. Ramanjooloo, R. Wainscoat, R.
    Weryk.  1.8-m Ritchey-Chretien + CCD.
F52 Pan-STARRS 2, Haleakala.  Observers J. Herman, T. Lowe, P. Minguez, A.
    Schultz, I. Smith.  Measurers K. Chambers, T. de Boer, J. Fairlamb, H.
    Gao, M. Huber, C.-C. Lin, E. Magnier, Y. Ramanjooloo, R. Wainscoat, R.
    Weryk.  1.8-m Ritchey-Chretien + CCD.
H01 Magdalena Ridge Observatory, Socorro.  Observers W. H. Ryan, E. V. Ryan.
    Measurer W. H. Ryan.  2.4-m f/8.9 Ritchey-Chretien + CCD.
I52 Steward Observatory, Mt. Lemmon Station.  Observer J. B. Fazekas.
    Measurers E. C. Beshore, D. Fay, J. B. Fazekas, D. C. Fuls, A. R. Gibbs,
    A. D. Grauer, H. Groeller, J. K. Hogan, R. A. Kowalski, S. M. Larson, G.
    J. Leonard, D. Rankin, R. L. Seaman, F. C. Shelly, K. W. Wierzchos.  1.0-m
    prime focus + CCD.
L01 Visnjan Observatory, Tican.  Observer K. Korlevic.  1.0-m f/2.9 reflector
    + CCD.

Orbital elements:
2024 CZ6                                                 Earth MOID = 0.0049 AU
Epoch 2024 Mar. 31.0 TT = JDT 2460400.5                 MPC                     
M  54.81954              (2000.0)            P               Q                  
n   0.61413151     Peri.   17.31423     -0.12350504     -0.99222487             
a   1.3707612      Node    79.78226     +0.90859862     -0.11929717             
e   0.3136670      Incl.    0.89500     +0.39899255     -0.03546815             
P   1.60           H   25.26          G   0.15           U   8                  
Residuals in seconds of arc
240214 F52  0.3+  0.3-    240215 I52  0.1+  0.2-    240215 F51  0.0   0.2+
240214 F52  0.2+  0.1-    240215 I52  0.1+  0.3-    240216 H01  0.1-  0.0
240214 F52  0.0   0.3-    240215 I52  0.0   0.0     240216 H01  0.0   0.0
240215 L01  0.1-  0.5+    240215 I52  0.1+  0.2-    240216 H01  0.0   0.0
240215 L01  0.5-  0.9+    240215 F51  0.1+  0.0     240216 H01  0.0   0.0
240215 L01  1.0-  0.0     240215 F51  0.1+  0.0

Ephemeris:
2024 CZ6                 a,e,i = 1.37, 0.31, 1                   q = 0.9408
Date    TT    R. A. (2000) Decl.     Delta      r    Elong.  Phase     V
2024 01 17    20 04 18.6 -04 21 27   0.03232 0.9529    16.9   162.6    29.7
...
2024 02 01    14 56 02.7 +03 03 38   0.03822 0.9864    90.6    87.1    21.2
...
2024 02 09    13 47 41.6 +04 19 49   0.05635 1.0117   115.1    62.0    21.2
...
2024 02 15    13 17 56.0 +04 54 04   0.07152 1.0334   128.3    48.6    21.4
2024 02 16    13 13 52.4 +04 59 01   0.07415 1.0373   130.3    46.6    21.5
2024 02 17    13 10 00.1 +05 03 50   0.07681 1.0411   132.2    44.6    21.5
...
2024 02 23    12 49 51.3 +05 30 03   0.09349 1.0654   143.0    33.9    21.7
...
2024 03 02    12 28 31.9 +05 59 15   0.1181  1.1000   156.0    21.5    21.9
...
2024 03 17    12 00 02.8 +06 27 58   0.1754  1.1696   174.0     5.1    22.2

A. U. Tomatic                (C) Copyright 2024 MPC           M.P.E.C. 2024-D05





More information about the Iaude mailing list